Time,TemperatureF,DewpointF,PressureIn,WindDirection,WindDirectionDegrees,WindSpeedMPH,WindSpeedGustMPH,Humidity,HourlyPrecipIn,Conditions,Clouds,dailyrainin,SolarRadiationWatts/m^2,SoftwareType,DateUTC
2013-01-30 00:04:00,32.5,32.0,29.55,NNW,327,3.5,5.8,98,0.00,-SN,,0.00,0.0,WeatherDisplay:10.37,2013-01-30 06:04:00,
2013-01-30 00:09:00,32.5,32.0,29.55,NW,315,4.8,6.0,98,0.00,-SN,,0.00,0.0,WeatherDisplay:10.37,2013-01-30 06:09:00,
2013-01-30 00:14:00,32.5,32.0,29.58,WNW,299,2.6,3.5,98,0.00,OVC,,0.00,0.0,WeatherDisplay:10.37,2013-01-30 06:14:00,
2013-01-30 00:19:00,32.4,31.9,29.58,NNW,327,3.0,4.6,98,0.00,OVC,,0.00,0.0,WeatherDisplay:10.37,2013-01-30 06:19:00,
2013-01-30 00:24:00,32.4,31.9,29.58,North,9,3.6,4.8,98,0.00,OVC,,0.00,0.0,WeatherDisplay:10.37,2013-01-30 06:24:00,
2013-01-30 00:29:00,32.4,31.9,29.52,NE,45,4.7,6.9,98,0.00,OVC,,0.00,0.0,WeatherDisplay:10.37,2013-01-30 06:29:00,
2013-01-30 00:34:00,32.2,31.7,29.52,NNE,13,4.9,6.9,98,0.00,OVC,,0.00,0.0,WeatherDisplay:10.37,2013-01-30 06:34:00,
2013-01-30 00:39:00,32.2,31.7,29.52,NNE,13,4.7,6.0,98,0.00,OVC,,0.00,0.0,WeatherDisplay:10.37,2013-01-30 06:39:00,
2013-01-30 00:44:00,32.2,31.7,29.52,NNE,12,3.4,6.9,98,0.00,OVC,,0.00,0.0,WeatherDisplay:10.37,2013-01-30 06:44:00,
2013-01-30 00:49:00,32.2,31.7,29.52,NNW,346,3.8,3.8,98,0.00,OVC,,0.00,0.0,WeatherDisplay:10.37,2013-01-30 06:49:00,
2013-01-30 00:54:00,32.2,31.7,29.52,North,5,3.9,4.6,98,0.00,OVC,,0.00,0.0,WeatherDisplay:10.37,2013-01-30 06:54:00,
2013-01-30 00:59:00,32.2,31.7,29.53,NNE,19,2.7,5.8,98,0.00,OVC,,0.00,0.0,WeatherDisplay:10.37,2013-01-30 06:59:00,
2013-01-30 01:04:00,32.2,31.7,29.53,NNE,13,4.1,6.0,98,0.00,OVC,,0.00,0.0,WeatherDisplay:10.37,2013-01-30 07:04:00,
2013-01-30 01:09:00,32.2,31.7,29.53,North,5,4.0,6.9,98,0.00,OVC,,0.00,0.0,WeatherDisplay:10.37,2013-01-30 07:09:00,
2013-01-30 01:14:00,32.2,31.7,29.52,North,355,3.5,6.0,98,0.00,OVC,,0.00,0.0,WeatherDisplay:10.37,2013-01-30 07:14:00,
2013-01-30 01:19:00,32.1,31.6,29.52,NNW,336,4.7,5.8,98,0.00,OVC,,0.00,0.0,WeatherDisplay:10.37,2013-01-30 07:19:00,
2013-01-30 01:24:00,32.2,31.4,29.52,North,355,3.2,3.6,97,0.00,OVC,,0.00,0.0,WeatherDisplay:10.37,2013-01-30 07:24:00,
2013-01-30 01:29:00,32.1,31.3,29.51,North,355,5.4,7.2,97,0.00,OVC,,0.00,0.0,WeatherDisplay:10.37,2013-01-30 07:29:00,
2013-01-30 01:34:00,32.1,31.3,29.51,NNE,16,2.0,4.6,97,0.00,OVC,,0.00,0.0,WeatherDisplay:10.37,2013-01-30 07:34:00,
2013-01-30 01:39:00,32.1,31.3,29.51,North,350,3.4,5.8,97,0.00,OVC,,0.00,0.0,WeatherDisplay:10.37,2013-01-30 07:39:00,
2013-01-30 01:44:00,32.1,31.3,29.50,NNE,33,5.1,6.0,97,0.00,OVC,,0.00,0.0,WeatherDisplay:10.37,2013-01-30 07:44:00,
2013-01-30 01:49:00,32.1,31.3,29.50,NNE,16,4.8,6.9,97,0.00,OVC,,0.00,0.0,WeatherDisplay:10.37,2013-01-30 07:49:00,
2013-01-30 01:54:00,32.1,31.3,29.50,NNW,348,2.9,8.1,97,0.00,OVC,,0.00,0.0,WeatherDisplay:10.37,2013-01-30 07:54:00,
2013-01-30 01:59:00,32.1,31.3,29.50,North,9,2.5,4.6,97,0.00,OVC,,0.00,0.0,WeatherDisplay:10.37,2013-01-30 07:59:00,
2013-01-30 02:04:00,32.1,31.3,29.50,NNE,13,3.6,6.9,97,0.00,OVC,,0.00,0.0,WeatherDisplay:10.37,2013-01-30 08:04:00,
2013-01-30 02:09:00,32.1,31.3,29.50,North,355,2.2,3.5,97,0.00,OVC,,0.00,0.0,WeatherDisplay:10.37,2013-01-30 08:09:00,
2013-01-30 02:14:00,32.1,31.3,29.50,North,360,2.5,5.8,97,0.00,OVC,,0.00,0.0,WeatherDisplay:10.37,2013-01-30 08:14:00,
2013-01-30 02:19:00,32.1,31.3,29.50,NNW,346,0.5,2.3,97,0.00,OVC,,0.00,0.0,WeatherDisplay:10.37,2013-01-30 08:19:00,
2013-01-30 02:24:00,32.1,31.3,29.50,NNE,12,5.4,8.1,97,0.00,OVC,,0.00,0.0,WeatherDisplay:10.37,2013-01-30 08:24:00,
2013-01-30 02:29:00,32.1,31.3,29.50,NNW,347,1.6,4.6,97,0.00,OVC,,0.00,0.0,WeatherDisplay:10.37,2013-01-30 08:29:00,
2013-01-30 02:34:00,32.1,31.3,29.50,North,360,2.1,5.8,97,0.00,OVC,,0.00,0.0,WeatherDisplay:10.37,2013-01-30 08:34:00,
2013-01-30 02:39:00,32.1,31.3,29.50,NW,315,0.0,2.3,97,0.00,OVC,,0.00,0.0,WeatherDisplay:10.37,2013-01-30 08:39:00,
2013-01-30 02:44:00,32.1,31.3,29.50,NNW,333,0.2,5.8,97,0.00,OVC,,0.00,0.0,WeatherDisplay:10.37,2013-01-30 08:44:00,
2013-01-30 02:49:00,32.1,31.3,29.50,NW,317,0.6,1.2,97,0.00,OVC,,0.00,0.0,WeatherDisplay:10.37,2013-01-30 08:49:00,
2013-01-30 02:54:00,32.1,31.1,29.50,NNW,328,0.8,3.6,96,0.00,OVC,,0.00,0.0,WeatherDisplay:10.37,2013-01-30 08:54:00,
2013-01-30 02:59:00,32.1,31.1,29.51,NNW,329,0.0,1.2,96,0.00,OVC,,0.00,0.0,WeatherDisplay:10.37,2013-01-30 08:59:00,
2013-01-30 03:04:00,32.1,31.1,29.51,NNW,345,0.2,1.1,96,0.00,OVC,,0.00,0.0,WeatherDisplay:10.37,2013-01-30 09:04:00,
2013-01-30 03:09:00,32.1,31.1,29.51,NNW,340,0.0,0.0,96,0.00,OVC,,0.00,0.0,WeatherDisplay:10.37,2013-01-30 09:09:00,
2013-01-30 03:14:00,32.1,31.1,29.50,NW,325,0.0,0.0,96,0.00,OVC,,0.00,0.0,WeatherDisplay:10.37,2013-01-30 09:14:00,
2013-01-30 03:19:00,32.1,31.1,29.50,NNW,346,0.0,1.1,96,0.00,OVC,,0.00,0.0,WeatherDisplay:10.37,2013-01-30 09:19:00,
2013-01-30 03:24:00,31.9,30.9,29.50,NNW,333,0.9,4.8,96,0.00,OVC,,0.00,0.0,WeatherDisplay:10.37,2013-01-30 09:24:00,
2013-01-30 03:29:00,31.9,30.9,29.50,North,355,2.1,3.5,96,0.00,OVC,,0.00,0.0,WeatherDisplay:10.37,2013-01-30 09:29:00,
2013-01-30 03:34:00,31.8,31.0,29.50,NNE,28,1.0,2.3,97,0.00,OVC,,0.00,0.0,WeatherDisplay:10.37,2013-01-30 09:34:00,
2013-01-30 03:39:00,31.8,31.0,29.50,NNW,342,0.1,2.3,97,0.00,OVC,,0.00,0.0,WeatherDisplay:10.37,2013-01-30 09:39:00,
2013-01-30 03:44:00,31.8,31.0,29.51,NW,323,0.1,0.0,97,0.00,-SN,,0.00,0.0,WeatherDisplay:10.37,2013-01-30 09:44:00,
2013-01-30 03:49:00,31.6,30.8,29.51,North,360,0.9,3.5,97,0.00,-SN,,0.00,0.0,WeatherDisplay:10.37,2013-01-30 09:49:00,
2013-01-30 03:54:00,31.6,30.8,29.51,NNW,331,0.0,0.0,97,0.00,-SN,,0.00,0.0,WeatherDisplay:10.37,2013-01-30 09:54:00,
2013-01-30 03:59:00,31.6,30.8,29.50,North,5,0.0,1.1,97,0.00,-SN,,0.00,0.0,WeatherDisplay:10.37,2013-01-30 09:59:00,
2013-01-30 04:04:00,31.5,30.7,29.50,NNW,333,0.6,3.6,97,0.00,-SN,,0.00,0.0,WeatherDisplay:10.37,2013-01-30 10:04:00,
2013-01-30 04:09:00,31.5,30.7,29.50,NNE,27,2.5,4.8,97,0.00,-SN,,0.00,0.0,WeatherDisplay:10.37,2013-01-30 10:09:00,
2013-01-30 04:14:00,31.3,30.5,29.50,NNW,333,1.1,4.8,97,0.00,-SN,,0.00,0.0,WeatherDisplay:10.37,2013-01-30 10:14:00,
2013-01-30 04:19:00,31.3,30.5,29.50,NNE,12,1.7,1.7,97,0.00,-SN,,0.00,0.0,WeatherDisplay:10.37,2013-01-30 10:19:00,
2013-01-30 04:24:00,31.2,30.4,29.50,NNE,22,0.0,1.1,97,0.00,-SN,,0.00,0.0,WeatherDisplay:10.37,2013-01-30 10:24:00,
2013-01-30 04:29:00,31.2,30.4,29.49,NNW,329,1.4,4.6,97,0.00,-SN,,0.00,0.0,WeatherDisplay:10.37,2013-01-30 10:29:00,
2013-01-30 04:34:00,31.0,30.2,29.49,North,360,1.3,3.6,97,0.00,-SN,,0.00,0.0,WeatherDisplay:10.37,2013-01-30 10:34:00,
2013-01-30 04:39:00,31.0,30.2,29.49,NNE,27,0.5,2.3,97,0.00,-SN,,0.00,0.0,WeatherDisplay:10.37,2013-01-30 10:39:00,
2013-01-30 04:44:00,30.9,30.1,29.48,NNW,327,0.4,2.4,97,0.00,-SN,,0.00,0.0,WeatherDisplay:10.37,2013-01-30 10:44:00,
2013-01-30 04:49:00,30.9,30.1,29.48,NNW,346,0.0,0.0,97,0.00,-SN,,0.00,0.0,WeatherDisplay:10.37,2013-01-30 10:49:00,
2013-01-30 04:54:00,30.7,30.0,29.48,NNE,14,0.0,0.0,97,0.00,-SN,,0.00,0.0,WeatherDisplay:10.37,2013-01-30 10:54:00,
2013-01-30 04:59:00,30.7,30.0,29.48,NW,320,3.1,5.8,97,0.00,-SN,,0.00,0.0,WeatherDisplay:10.37,2013-01-30 10:59:00,
2013-01-30 05:04:00,30.6,29.9,29.48,NNW,342,3.0,5.8,97,0.00,-SN,,0.00,0.0,WeatherDisplay:10.37,2013-01-30 11:04:00,
2013-01-30 05:09:00,30.4,29.7,29.48,NNW,338,0.8,3.5,97,0.00,-SN,,0.00,0.0,WeatherDisplay:10.37,2013-01-30 11:09:00,
2013-01-30 05:14:00,30.3,29.6,29.46,North,349,4.6,5.8,97,0.00,-SN,,0.00,0.0,WeatherDisplay:10.37,2013-01-30 11:14:00,
2013-01-30 05:19:00,30.0,29.3,29.46,NW,316,4.3,6.9,97,0.00,-SN,,0.00,0.0,WeatherDisplay:10.37,2013-01-30 11:19:00,
2013-01-30 05:24:00,29.7,29.0,29.46,North,360,5.3,5.8,97,0.00,-SN,,0.00,0.0,WeatherDisplay:10.37,2013-01-30 11:24:00,
2013-01-30 05:29:00,29.5,28.8,29.45,NNW,334,1.6,5.8,97,0.00,-SN,,0.00,0.0,WeatherDisplay:10.37,2013-01-30 11:29:00,
2013-01-30 05:34:00,29.4,28.7,29.45,North,5,1.7,5.8,97,0.00,-SN,,0.00,0.0,WeatherDisplay:10.37,2013-01-30 11:34:00,
2013-01-30 05:39:00,29.3,28.6,29.45,NNW,348,2.5,3.6,97,0.00,-SN,,0.00,0.0,WeatherDisplay:10.37,2013-01-30 11:39:00,
2013-01-30 05:44:00,29.1,28.4,29.46,NW,321,3.0,4.6,97,0.00,-SN,,0.00,0.0,WeatherDisplay:10.37,2013-01-30 11:44:00,
2013-01-30 05:49:00,29.1,28.4,29.46,NE,44,6.4,7.2,97,0.00,-SN,,0.00,0.0,WeatherDisplay:10.37,2013-01-30 11:49:00,
2013-01-30 05:54:00,29.0,28.3,29.46,NNW,344,2.8,5.8,97,0.00,-SN,,0.00,0.0,WeatherDisplay:10.37,2013-01-30 11:54:00,
2013-01-30 05:59:00,29.0,28.3,29.46,NNE,26,0.9,3.6,97,0.00,-SN,,0.00,0.0,WeatherDisplay:10.37,2013-01-30 11:59:00,
2013-01-30 06:04:00,28.8,28.1,29.46,North,5,0.0,2.3,97,0.00,-SN,,0.00,0.0,WeatherDisplay:10.37,2013-01-30 12:04:00,
2013-01-30 06:09:00,28.8,28.1,29.46,NNE,15,4.2,4.6,97,0.00,-SN,,0.00,0.0,WeatherDisplay:10.37,2013-01-30 12:09:00,
2013-01-30 06:14:00,28.8,28.1,29.44,NNW,336,1.5,4.6,97,0.00,-SN,,0.00,0.0,WeatherDisplay:10.37,2013-01-30 12:14:00,
2013-01-30 06:19:00,28.7,28.0,29.44,NNW,336,1.4,6.0,97,0.00,-SN,,0.00,0.0,WeatherDisplay:10.37,2013-01-30 12:19:00,
2013-01-30 06:24:00,28.7,28.0,29.44,WNW,298,3.2,6.0,97,0.00,OVC,,0.00,0.0,WeatherDisplay:10.37,2013-01-30 12:24:00,
2013-01-30 06:29:00,28.5,27.8,29.44,North,360,3.7,6.9,97,0.00,OVC,,0.00,0.0,WeatherDisplay:10.37,2013-01-30 12:29:00,
2013-01-30 06:34:00,28.5,27.8,29.44,NNE,19,4.4,8.1,97,0.00,OVC,,0.00,0.0,WeatherDisplay:10.37,2013-01-30 12:34:00,
2013-01-30 06:39:00,28.4,27.7,29.44,NNE,24,1.7,5.8,97,0.00,OVC,,0.00,0.0,WeatherDisplay:10.37,2013-01-30 12:39:00,
2013-01-30 06:44:00,28.2,27.5,29.44,North,5,2.6,6.9,97,0.00,-SN,,0.00,0.0,WeatherDisplay:10.37,2013-01-30 12:44:00,
2013-01-30 06:49:00,28.2,27.5,29.44,North,355,3.7,6.9,97,0.00,-SN,,0.00,0.0,WeatherDisplay:10.37,2013-01-30 12:49:00,
2013-01-30 06:54:00,28.1,27.4,29.44,NNW,344,3.3,4.6,97,0.00,-SN,,0.00,0.0,WeatherDisplay:10.37,2013-01-30 12:54:00,
2013-01-30 06:59:00,28.1,27.4,29.44,North,11,3.8,8.1,97,0.00,-SN,,0.00,0.0,WeatherDisplay:10.37,2013-01-30 12:59:00,
2013-01-30 07:04:00,28.1,27.4,29.44,North,9,3.8,4.6,97,0.00,-SN,,0.00,0.0,WeatherDisplay:10.37,2013-01-30 13:04:00,
2013-01-30 07:09:00,27.9,27.2,29.44,NNW,348,2.3,4.6,97,0.00,-SN,,0.00,0.0,WeatherDisplay:10.37,2013-01-30 13:09:00,
2013-01-30 07:14:00,27.9,26.7,29.45,North,350,4.0,6.0,95,0.00,-SN,,0.00,0.0,WeatherDisplay:10.37,2013-01-30 13:14:00,
2013-01-30 07:19:00,27.8,27.1,29.45,NW,320,3.5,3.6,97,0.00,-SN,,0.00,0.0,WeatherDisplay:10.37,2013-01-30 13:19:00,
2013-01-30 07:24:00,27.8,27.1,29.45,North,355,3.0,4.6,97,0.00,-SN,,0.00,0.0,WeatherDisplay:10.37,2013-01-30 13:24:00,
2013-01-30 07:29:00,27.8,27.1,29.45,North,355,2.9,4.6,97,0.00,-SN,,0.00,0.0,WeatherDisplay:10.37,2013-01-30 13:29:00,
2013-01-30 07:34:00,27.6,26.9,29.45,NNW,335,4.1,4.6,97,0.00,-SN,,0.00,0.0,WeatherDisplay:10.37,2013-01-30 13:34:00,
2013-01-30 07:39:00,27.6,26.9,29.45,North,10,5.3,5.8,97,0.00,-SN,,0.00,0.0,WeatherDisplay:10.37,2013-01-30 13:39:00,
2013-01-30 07:44:00,27.6,26.9,29.44,NW,326,1.8,3.6,97,0.00,-SN,,0.00,0.0,WeatherDisplay:10.37,2013-01-30 13:44:00,
2013-01-30 07:49:00,27.6,26.9,29.44,NW,321,4.4,4.8,97,0.00,-SN,,0.00,0.0,WeatherDisplay:10.37,2013-01-30 13:49:00,
2013-01-30 07:54:00,27.6,26.9,29.44,NW,311,1.9,4.6,97,0.00,-SN,,0.00,0.0,WeatherDisplay:10.37,2013-01-30 13:54:00,
2013-01-30 07:59:00,27.5,26.8,29.47,NNW,336,3.3,5.8,97,0.00,-SN,,0.00,0.0,WeatherDisplay:10.37,2013-01-30 13:59:00,
2013-01-30 08:04:00,27.5,26.8,29.47,North,360,6.0,6.0,97,0.00,-SN,,0.00,0.0,WeatherDisplay:10.37,2013-01-30 14:04:00,
2013-01-30 08:09:00,27.3,26.6,29.47,NNE,14,4.7,4.7,97,0.00,-SN,,0.00,5.0,WeatherDisplay:10.37,2013-01-30 14:09:00,
2013-01-30 08:14:00,27.3,26.6,29.45,North,5,5.5,6.0,97,0.00,-SN,,0.00,7.0,WeatherDisplay:10.37,2013-01-30 14:14:00,
2013-01-30 08:19:00,27.2,26.5,29.45,NNE,32,4.5,6.0,97,0.00,-SN,,0.00,11.0,WeatherDisplay:10.37,2013-01-30 14:19:00,
2013-01-30 08:24:00,27.0,26.3,29.45,NW,317,4.7,8.1,97,0.00,OVC,,0.00,9.0,WeatherDisplay:10.37,2013-01-30 14:24:00,
2013-01-30 08:29:00,26.9,26.2,29.46,NNW,329,4.7,6.9,97,0.00,OVC,,0.00,9.0,WeatherDisplay:10.37,2013-01-30 14:29:00,
2013-01-30 08:34:00,26.9,26.2,29.46,North,355,5.6,8.1,97,0.00,OVC,,0.00,9.0,WeatherDisplay:10.37,2013-01-30 14:34:00,
2013-01-30 08:39:00,26.7,26.0,29.46,NNW,335,8.8,16.1,97,0.00,OVC,,0.00,9.0,WeatherDisplay:10.37,2013-01-30 14:39:00,
2013-01-30 08:44:00,26.6,25.9,29.44,NW,314,4.9,9.2,97,0.00,OVC,,0.00,7.0,WeatherDisplay:10.37,2013-01-30 14:44:00,
2013-01-30 08:49:00,26.6,25.9,29.44,North,9,3.8,6.0,97,0.00,OVC,,0.00,11.0,WeatherDisplay:10.37,2013-01-30 14:49:00,
2013-01-30 08:54:00,26.6,25.9,29.44,North,5,7.2,15.0,97,0.00,OVC,,0.00,14.0,WeatherDisplay:10.37,2013-01-30 14:54:00,
2013-01-30 08:59:00,26.6,25.9,29.44,North,360,6.7,6.9,97,0.00,OVC,,0.00,23.0,WeatherDisplay:10.37,2013-01-30 14:59:00,
2013-01-30 09:04:00,26.4,25.7,29.44,NNE,27,3.4,7.2,97,0.00, +SN,,0.00,21.0,WeatherDisplay:10.37,2013-01-30 15:04:00,
2013-01-30 09:09:00,26.4,25.7,29.44,NE,34,5.8,9.6,97,0.00, +SN,,0.00,21.0,WeatherDisplay:10.37,2013-01-30 15:09:00,
2013-01-30 09:14:00,26.4,25.7,29.43,NNW,335,4.2,8.1,97,0.00, +SN,,0.00,18.0,WeatherDisplay:10.37,2013-01-30 15:14:00,
2013-01-30 09:19:00,26.4,25.7,29.43,NNE,14,7.0,7.0,97,0.00, +SN,,0.00,16.0,WeatherDisplay:10.37,2013-01-30 15:19:00,
2013-01-30 09:24:00,26.3,25.6,29.43,North,10,6.0,6.0,97,0.00,OVC,,0.00,14.0,WeatherDisplay:10.37,2013-01-30 15:24:00,
2013-01-30 09:29:00,26.3,25.6,29.45,NNW,342,3.8,4.6,97,0.00,OVC,,0.00,28.0,WeatherDisplay:10.37,2013-01-30 15:29:00,
2013-01-30 09:34:00,26.4,25.7,29.45,NW,316,2.3,3.6,97,0.00,OVC,,0.00,40.0,WeatherDisplay:10.37,2013-01-30 15:34:00,
2013-01-30 09:39:00,26.4,25.7,29.45,North,355,4.8,6.0,97,0.00,OVC,,0.00,25.0,WeatherDisplay:10.37,2013-01-30 15:39:00,
2013-01-30 09:44:00,26.4,25.7,29.47,NNW,333,1.8,3.6,97,0.00,OVC,,0.00,12.0,WeatherDisplay:10.37,2013-01-30 15:44:00,
2013-01-30 09:49:00,26.4,25.7,29.47,WNW,303,2.6,4.6,97,0.00,OVC,,0.00,11.0,WeatherDisplay:10.37,2013-01-30 15:49:00,
2013-01-30 09:54:00,26.4,25.7,29.47,NW,315,2.4,4.6,97,0.00,OVC,,0.00,14.0,WeatherDisplay:10.37,2013-01-30 15:54:00,
2013-01-30 09:59:00,26.4,25.7,29.45,NW,315,4.0,5.8,97,0.00,OVC,,0.00,23.0,WeatherDisplay:10.37,2013-01-30 15:59:00,
2013-01-30 10:04:00,26.4,25.7,29.45,WNW,298,4.1,6.0,97,0.00,OVC,,0.00,32.0,WeatherDisplay:10.37,2013-01-30 16:04:00,
2013-01-30 10:09:00,26.4,25.7,29.45,North,5,1.2,3.5,97,0.00,OVC,,0.00,26.0,WeatherDisplay:10.37,2013-01-30 16:09:00,
2013-01-30 10:14:00,26.4,25.7,29.45,NW,323,3.7,8.1,97,0.00,OVC,,0.00,26.0,WeatherDisplay:10.37,2013-01-30 16:14:00,
2013-01-30 10:19:00,26.4,25.7,29.45,NNW,342,4.3,5.8,97,0.00,OVC,,0.00,23.0,WeatherDisplay:10.37,2013-01-30 16:19:00,
2013-01-30 10:24:00,26.4,25.7,29.45,NNW,340,5.5,5.8,97,0.00,OVC,,0.00,33.0,WeatherDisplay:10.37,2013-01-30 16:24:00,
2013-01-30 10:29:00,26.6,25.9,29.45,WNW,300,3.3,3.6,97,0.00,OVC,,0.00,37.0,WeatherDisplay:10.37,2013-01-30 16:29:00,
2013-01-30 10:34:00,26.6,25.9,29.45,NNW,333,5.2,6.9,97,0.00,OVC,,0.00,26.0,WeatherDisplay:10.37,2013-01-30 16:34:00,
2013-01-30 10:39:00,26.6,25.9,29.45,NNW,333,0.0,2.3,97,0.00,OVC,,0.00,33.0,WeatherDisplay:10.37,2013-01-30 16:39:00,
2013-01-30 10:44:00,26.6,25.9,29.45,North,360,2.8,4.8,97,0.00,-SN,,0.00,39.0,WeatherDisplay:10.37,2013-01-30 16:44:00,
2013-01-30 10:49:00,26.6,25.9,29.45,North,9,3.2,5.8,97,0.00,-SN,,0.00,44.0,WeatherDisplay:10.37,2013-01-30 16:49:00,
2013-01-30 10:54:00,26.4,25.7,29.45,North,351,5.4,8.4,97,0.00,-SN,,0.00,51.0,WeatherDisplay:10.37,2013-01-30 16:54:00,
2013-01-30 10:59:00,26.4,25.7,29.45,NNW,345,5.1,6.0,97,0.00,-SN,,0.00,54.0,WeatherDisplay:10.37,2013-01-30 16:59:00,
2013-01-30 11:04:00,26.3,25.6,29.45,NW,311,6.6,8.4,97,0.00,OVC,,0.00,77.0,WeatherDisplay:10.37,2013-01-30 17:04:00,
2013-01-30 11:09:00,26.1,25.4,29.45,NNW,331,4.4,8.1,97,0.00,OVC,,0.00,86.0,WeatherDisplay:10.37,2013-01-30 17:09:00,
2013-01-30 11:14:00,26.1,25.4,29.44,NW,323,2.2,4.8,97,0.00,OVC,,0.00,77.0,WeatherDisplay:10.37,2013-01-30 17:14:00,
2013-01-30 11:19:00,26.3,25.6,29.44,NW,315,4.2,9.2,97,0.00,OVC,,0.00,67.0,WeatherDisplay:10.37,2013-01-30 17:19:00,
2013-01-30 11:24:00,26.3,25.6,29.44,NW,308,2.6,3.6,97,0.00,OVC,,0.00,62.0,WeatherDisplay:10.37,2013-01-30 17:24:00,
2013-01-30 11:29:00,26.3,25.6,29.43,NNW,346,5.9,8.4,97,0.00,OVC,,0.00,77.0,WeatherDisplay:10.37,2013-01-30 17:29:00,
2013-01-30 11:34:00,26.1,25.4,29.43,NW,307,5.0,9.2,97,0.00,OVC,,0.00,77.0,WeatherDisplay:10.37,2013-01-30 17:34:00,
2013-01-30 11:39:00,26.0,25.3,29.43,NNW,343,8.0,9.6,97,0.00,OVC,,0.00,93.0,WeatherDisplay:10.37,2013-01-30 17:39:00,
2013-01-30 11:44:00,25.8,25.1,29.43,North,355,5.1,10.4,97,0.00,-SN,,0.00,93.0,WeatherDisplay:10.37,2013-01-30 17:44:00,
2013-01-30 11:49:00,25.7,25.0,29.43,WNW,291,5.2,5.8,97,0.00,-SN,,0.00,90.0,WeatherDisplay:10.37,2013-01-30 17:49:00,
2013-01-30 11:54:00,25.7,25.0,29.43,NW,304,6.5,8.1,97,0.00,-SN,,0.00,90.0,WeatherDisplay:10.37,2013-01-30 17:54:00,
2013-01-30 11:59:00,25.7,25.0,29.43,NW,326,6.8,8.1,97,0.00,-SN,,0.00,105.0,WeatherDisplay:10.37,2013-01-30 17:59:00,
2013-01-30 12:04:00,25.7,25.0,29.43,NW,312,5.1,8.1,97,0.00,-SN,,0.00,121.0,WeatherDisplay:10.37,2013-01-30 18:04:00,
2013-01-30 12:10:00,25.8,25.1,29.43,NNW,340,5.5,5.5,97,0.00,-SN,,0.00,132.0,WeatherDisplay:10.37,2013-01-30 18:10:00,
2013-01-30 12:15:00,25.8,25.1,29.43,NW,315,6.4,7.2,97,0.00,-SN,,0.00,111.0,WeatherDisplay:10.37,2013-01-30 18:15:00,
2013-01-30 12:20:00,25.8,25.1,29.43,NNW,340,6.0,6.0,97,0.00,-SN,,0.00,100.0,WeatherDisplay:10.37,2013-01-30 18:20:00,
2013-01-30 12:25:00,25.8,25.1,29.43,WNW,294,3.0,4.6,97,0.00,-SN,,0.00,100.0,WeatherDisplay:10.37,2013-01-30 18:25:00,
2013-01-30 12:30:00,26.0,25.3,29.42,NNW,327,4.8,8.4,97,0.00,-SN,,0.00,111.0,WeatherDisplay:10.37,2013-01-30 18:30:00,
2013-01-30 12:35:00,26.0,25.3,29.42,WNW,302,3.8,4.8,97,0.00,-SN,,0.00,113.0,WeatherDisplay:10.37,2013-01-30 18:35:00,
2013-01-30 12:40:00,26.0,25.3,29.42,NW,309,4.0,10.4,97,0.00,-SN,,0.00,118.0,WeatherDisplay:10.37,2013-01-30 18:40:00,
2013-01-30 12:45:00,25.8,25.1,29.42,NNW,327,6.2,10.4,97,0.00,-SN,,0.00,97.0,WeatherDisplay:10.37,2013-01-30 18:45:00,
2013-01-30 12:50:00,25.4,24.7,29.42,NW,316,6.1,10.4,97,0.00,-SN,,0.00,109.0,WeatherDisplay:10.37,2013-01-30 18:50:00,
2013-01-30 12:55:00,25.3,24.6,29.42,NNW,333,8.3,9.6,97,0.00,-SN,,0.00,128.0,WeatherDisplay:10.37,2013-01-30 18:55:00,
2013-01-30 13:00:00,25.3,24.6,29.42,WNW,298,3.8,6.9,97,0.00,-SN,,0.00,123.0,WeatherDisplay:10.37,2013-01-30 19:00:00,
2013-01-30 13:05:00,25.1,24.4,29.42,WNW,296,7.1,16.1,97,0.00,-SN,,0.00,135.0,WeatherDisplay:10.37,2013-01-30 19:05:00,
2013-01-30 13:10:00,25.1,24.4,29.42,NNW,342,7.0,9.6,97,0.00,-SN,,0.00,120.0,WeatherDisplay:10.37,2013-01-30 19:10:00,
2013-01-30 13:15:00,25.1,24.4,29.42,NW,318,1.7,8.1,97,0.00,-SN,,0.00,118.0,WeatherDisplay:10.37,2013-01-30 19:15:00,
2013-01-30 13:20:00,25.1,24.4,29.42,NNW,342,5.1,8.4,97,0.00,-SN,,0.00,132.0,WeatherDisplay:10.37,2013-01-30 19:20:00,
2013-01-30 13:25:00,25.1,24.4,29.42,NNW,331,8.3,11.5,97,0.00,-SN,,0.00,130.0,WeatherDisplay:10.37,2013-01-30 19:25:00,
2013-01-30 13:30:00,25.0,24.3,29.42,NW,319,4.2,9.2,97,0.00,-SN,,0.00,128.0,WeatherDisplay:10.37,2013-01-30 19:30:00,
2013-01-30 13:35:00,25.0,24.0,29.42,NW,315,8.5,10.4,96,0.00,-SN,,0.00,116.0,WeatherDisplay:10.37,2013-01-30 19:35:00,
2013-01-30 13:40:00,24.7,23.7,29.42,WNW,298,6.2,8.1,96,0.00,-SN,,0.00,121.0,WeatherDisplay:10.37,2013-01-30 19:40:00,
2013-01-30 13:45:00,24.7,23.7,29.43,NW,306,8.2,10.4,96,0.00,-SN,,0.00,111.0,WeatherDisplay:10.37,2013-01-30 19:45:00,
2013-01-30 13:50:00,24.7,23.7,29.43,NW,315,1.2,4.6,96,0.00,-SN,,0.00,100.0,WeatherDisplay:10.37,2013-01-30 19:50:00,
2013-01-30 13:55:00,24.7,23.7,29.43,NW,318,3.4,4.6,96,0.00,-SN,,0.00,88.0,WeatherDisplay:10.37,2013-01-30 19:55:00,
2013-01-30 14:00:00,24.4,23.4,29.43,NNW,333,6.1,11.5,96,0.00,-SN,,0.00,90.0,WeatherDisplay:10.37,2013-01-30 20:00:00,
2013-01-30 14:05:00,24.2,23.2,29.43,NW,315,7.8,9.6,96,0.00,-SN,,0.00,90.0,WeatherDisplay:10.37,2013-01-30 20:05:00,
2013-01-30 14:10:00,24.1,23.1,29.43,NNW,330,5.2,6.9,96,0.00,-SN,,0.00,90.0,WeatherDisplay:10.37,2013-01-30 20:10:00,
2013-01-30 14:15:00,24.1,23.1,29.44,NNW,342,6.1,9.6,96,0.00,-SN,,0.00,83.0,WeatherDisplay:10.37,2013-01-30 20:15:00,
2013-01-30 14:20:00,23.9,22.9,29.44,WNW,292,11.0,11.5,96,0.00,-SN,,0.00,72.0,WeatherDisplay:10.37,2013-01-30 20:20:00,
2013-01-30 14:25:00,23.3,22.1,29.44,WNW,298,12.0,17.3,95,0.00,-SN,,0.00,72.0,WeatherDisplay:10.37,2013-01-30 20:25:00,
2013-01-30 14:30:00,22.7,21.5,29.45,NW,312,9.4,11.5,95,0.00,-SN,,0.00,81.0,WeatherDisplay:10.37,2013-01-30 20:30:00,
2013-01-30 14:35:00,22.4,21.2,29.45,WNW,300,9.0,12.7,95,0.00,-SN,,0.00,79.0,WeatherDisplay:10.37,2013-01-30 20:35:00,
2013-01-30 14:40:00,22.4,21.2,29.45,NW,315,6.7,6.9,95,0.00,-SN,,0.00,72.0,WeatherDisplay:10.37,2013-01-30 20:40:00,
2013-01-30 14:45:00,22.4,21.2,29.45,WNW,296,11.1,16.1,95,0.00,-SN,,0.00,67.0,WeatherDisplay:10.37,2013-01-30 20:45:00,
2013-01-30 14:50:00,21.6,20.1,29.45,NNW,328,8.6,11.5,94,0.00,-SN,,0.00,72.0,WeatherDisplay:10.37,2013-01-30 20:50:00,
2013-01-30 14:55:00,21.1,19.6,29.45,WNW,292,9.8,12.7,94,0.00,-SN,,0.00,76.0,WeatherDisplay:10.37,2013-01-30 20:55:00,
2013-01-30 15:00:00,20.6,19.1,29.46,NW,311,7.9,10.8,94,0.00,-SN,,0.00,77.0,WeatherDisplay:10.37,2013-01-30 21:00:00,
2013-01-30 15:05:00,20.6,19.1,29.46,NW,316,7.4,10.4,94,0.00,-SN,,0.00,81.0,WeatherDisplay:10.37,2013-01-30 21:05:00,
2013-01-30 15:10:00,20.6,19.1,29.46,NW,325,6.5,10.8,94,0.00,-SN,,0.00,81.0,WeatherDisplay:10.37,2013-01-30 21:10:00,
2013-01-30 15:15:00,20.5,19.0,29.47,NW,308,9.0,12.7,94,0.00,-SN,,0.00,79.0,WeatherDisplay:10.37,2013-01-30 21:15:00,
2013-01-30 15:20:00,20.0,18.6,29.47,WNW,294,8.1,11.5,94,0.00,-SN,,0.00,79.0,WeatherDisplay:10.37,2013-01-30 21:20:00,
2013-01-30 15:25:00,19.9,18.5,29.47,NW,320,8.3,15.0,94,0.00,-SN,,0.00,77.0,WeatherDisplay:10.37,2013-01-30 21:25:00,
2013-01-30 15:30:00,19.9,18.2,29.47,NW,320,11.8,12.7,93,0.00,-SN,,0.00,76.0,WeatherDisplay:10.37,2013-01-30 21:30:00,
2013-01-30 15:35:00,19.7,18.3,29.47,WNW,301,7.1,9.2,94,0.00,-SN,,0.00,72.0,WeatherDisplay:10.37,2013-01-30 21:35:00,
2013-01-30 15:40:00,19.7,18.0,29.47,NW,319,7.1,10.8,93,0.00,-SN,,0.00,70.0,WeatherDisplay:10.37,2013-01-30 21:40:00,
2013-01-30 15:45:00,19.7,18.0,29.48,NW,309,6.9,10.4,93,0.00,-SN,,0.00,69.0,WeatherDisplay:10.37,2013-01-30 21:45:00,
2013-01-30 15:50:00,19.7,18.0,29.48,WNW,292,9.4,16.1,93,0.00,-SN,,0.00,60.0,WeatherDisplay:10.37,2013-01-30 21:50:00,
2013-01-30 15:55:00,19.5,17.8,29.48,NW,304,8.0,11.5,93,0.00,-SN,,0.00,40.0,WeatherDisplay:10.37,2013-01-30 21:55:00,
2013-01-30 16:00:00,19.5,17.8,29.48,NW,320,6.2,9.2,93,0.00,-SN,,0.00,39.0,WeatherDisplay:10.37,2013-01-30 22:00:00,
2013-01-30 16:05:00,19.4,17.7,29.48,WNW,292,10.8,12.7,93,0.00,-SN,,0.00,46.0,WeatherDisplay:10.37,2013-01-30 22:05:00,
2013-01-30 16:10:00,19.4,17.7,29.48,NNW,331,5.3,8.1,93,0.00,-SN,,0.00,49.0,WeatherDisplay:10.37,2013-01-30 22:10:00,
2013-01-30 16:15:00,19.4,17.7,29.49,WNW,302,9.9,10.4,93,0.00,-SN,,0.00,46.0,WeatherDisplay:10.37,2013-01-30 22:15:00,
2013-01-30 16:20:00,19.2,17.5,29.49,NNW,346,10.8,16.1,93,0.00,-SN,,0.00,47.0,WeatherDisplay:10.37,2013-01-30 22:20:00,
2013-01-30 16:25:00,19.1,17.2,29.49,WNW,288,3.7,4.8,92,0.00,-SN,,0.00,46.0,WeatherDisplay:10.37,2013-01-30 22:25:00,
2013-01-30 16:30:00,18.9,17.0,29.49,NNW,331,9.6,16.1,92,0.00,-SN,,0.00,32.0,WeatherDisplay:10.37,2013-01-30 22:30:00,
2013-01-30 16:35:00,18.8,16.9,29.49,WNW,298,8.9,10.4,92,0.00,-SN,,0.00,25.0,WeatherDisplay:10.37,2013-01-30 22:35:00,
2013-01-30 16:40:00,18.4,16.5,29.49,NW,318,7.2,8.4,92,0.00,-SN,,0.00,18.0,WeatherDisplay:10.37,2013-01-30 22:40:00,
2013-01-30 16:45:00,18.3,16.4,29.50,NW,304,11.8,18.4,92,0.00,-SN,,0.00,12.0,WeatherDisplay:10.37,2013-01-30 22:45:00,
2013-01-30 16:50:00,18.3,16.1,29.50,NNW,331,9.7,12.7,91,0.00,-SN,,0.00,7.0,WeatherDisplay:10.37,2013-01-30 22:50:00,
2013-01-30 16:55:00,18.1,15.9,29.50,WNW,284,7.7,16.1,91,0.00,-SN,,0.00,5.0,WeatherDisplay:10.37,2013-01-30 22:55:00,
2013-01-30 17:00:00,18.0,15.8,29.51,NW,313,8.3,16.1,91,0.00,-SN,,0.00,0.0,WeatherDisplay:10.37,2013-01-30 23:00:00,
2013-01-30 17:05:00,18.0,15.8,29.51,NW,324,7.4,12.7,91,0.00,-SN,,0.00,5.0,WeatherDisplay:10.37,2013-01-30 23:05:00,
2013-01-30 17:10:00,18.0,15.8,29.51,NW,315,8.4,15.0,91,0.00,-SN,,0.00,0.0,WeatherDisplay:10.37,2013-01-30 23:10:00,
2013-01-30 17:15:00,18.0,15.8,29.51,NW,326,5.7,6.9,91,0.00,-SN,,0.00,0.0,WeatherDisplay:10.37,2013-01-30 23:15:00,
2013-01-30 17:20:00,17.8,15.6,29.51,NNW,338,8.3,9.2,91,0.00,-SN,,0.00,0.0,WeatherDisplay:10.37,2013-01-30 23:20:00,
2013-01-30 17:25:00,17.7,15.3,29.51,NW,311,11.5,11.5,90,0.00,-SN,,0.00,0.0,WeatherDisplay:10.37,2013-01-30 23:25:00,
2013-01-30 17:30:00,17.5,15.1,29.52,NNW,342,9.9,16.1,90,0.00,-SN,,0.00,0.0,WeatherDisplay:10.37,2013-01-30 23:30:00,
2013-01-30 17:35:00,17.3,14.9,29.52,NW,319,6.8,15.6,90,0.00,-SN,,0.00,0.0,WeatherDisplay:10.37,2013-01-30 23:35:00,
2013-01-30 17:40:00,17.2,14.8,29.52,NW,309,8.3,10.8,90,0.00,-SN,,0.00,0.0,WeatherDisplay:10.37,2013-01-30 23:40:00,
2013-01-30 17:45:00,17.2,14.8,29.53,NNW,338,7.0,12.7,90,0.00,SCT,,0.00,0.0,WeatherDisplay:10.37,2013-01-30 23:45:00,
2013-01-30 17:50:00,17.0,14.6,29.53,West,281,6.9,12.7,90,0.00,SCT,,0.00,0.0,WeatherDisplay:10.37,2013-01-30 23:50:00,
2013-01-30 17:55:00,17.0,14.6,29.53,WNW,294,9.3,15.0,90,0.00,SCT,,0.00,0.0,WeatherDisplay:10.37,2013-01-30 23:55:00,
2013-01-30 18:00:00,17.0,14.6,29.54,WNW,293,4.8,6.0,90,0.00,SCT,,0.00,0.0,WeatherDisplay:10.37,2013-01-31 00:00:00,
2013-01-30 18:05:00,16.9,14.5,29.54,NW,304,9.3,17.3,90,0.00,CLR,,0.00,0.0,WeatherDisplay:10.37,2013-01-31 00:05:00,
2013-01-30 18:10:00,16.5,14.1,29.54,NW,322,7.6,10.4,90,0.00,CLR,,0.00,0.0,WeatherDisplay:10.37,2013-01-31 00:10:00,
2013-01-30 18:15:00,16.4,13.7,29.54,WNW,300,11.5,17.3,89,0.00,CLR,,0.00,0.0,WeatherDisplay:10.37,2013-01-31 00:15:00,
2013-01-30 18:20:00,16.1,13.4,29.54,NNW,338,14.6,20.7,89,0.00,-SN,,0.00,0.0,WeatherDisplay:10.37,2013-01-31 00:20:00,
2013-01-30 18:25:00,15.9,13.0,29.54,WNW,297,7.5,8.1,88,0.00,-SN,,0.00,0.0,WeatherDisplay:10.37,2013-01-31 00:25:00,
2013-01-30 18:30:00,15.9,13.0,29.56,NW,311,6.2,8.1,88,0.00,-SN,,0.00,0.0,WeatherDisplay:10.37,2013-01-31 00:30:00,
2013-01-30 18:35:00,15.7,12.8,29.56,NW,306,7.1,9.2,88,0.00,-SN,,0.00,0.0,WeatherDisplay:10.37,2013-01-31 00:35:00,
2013-01-30 18:40:00,15.7,12.5,29.56,NW,313,9.5,11.5,87,0.00,-SN,,0.00,0.0,WeatherDisplay:10.37,2013-01-31 00:40:00,
2013-01-30 18:45:00,15.6,12.4,29.56,WNW,299,6.4,9.2,87,0.00,-SN,,0.00,0.0,WeatherDisplay:10.37,2013-01-31 00:45:00,
2013-01-30 18:50:00,15.4,12.0,29.56,NW,324,11.4,17.3,86,0.00,-SN,,0.00,0.0,WeatherDisplay:10.37,2013-01-31 00:50:00,
2013-01-30 18:55:00,15.4,12.0,29.56,NNW,330,7.5,19.6,86,0.00,-SN,,0.00,0.0,WeatherDisplay:10.37,2013-01-31 00:55:00,
2013-01-30 19:00:00,15.4,12.0,29.57,West,276,9.4,19.2,86,0.00,-SN,,0.00,0.0,WeatherDisplay:10.37,2013-01-31 01:00:00,
2013-01-30 19:05:00,15.2,11.8,29.57,West,277,11.0,20.7,86,0.00,-SN,,0.00,0.0,WeatherDisplay:10.37,2013-01-31 01:05:00,
2013-01-30 19:10:00,15.4,12.0,29.57,WNW,282,7.0,8.4,86,0.00,-SN,,0.00,0.0,WeatherDisplay:10.37,2013-01-31 01:10:00,
2013-01-30 19:15:00,15.4,11.7,29.57,WNW,286,7.8,15.0,85,0.00,-SN,,0.00,0.0,WeatherDisplay:10.37,2013-01-31 01:15:00,
2013-01-30 19:20:00,15.2,11.5,29.57,WNW,295,10.2,12.7,85,0.00,-SN,,0.00,0.0,WeatherDisplay:10.37,2013-01-31 01:20:00,
2013-01-30 19:25:00,15.2,11.5,29.57,West,277,11.4,16.1,85,0.00,-SN,,0.00,0.0,WeatherDisplay:10.37,2013-01-31 01:25:00,
2013-01-30 19:30:00,15.4,11.7,29.58,West,275,6.6,8.1,85,0.00,-SN,,0.00,0.0,WeatherDisplay:10.37,2013-01-31 01:30:00,
2013-01-30 19:35:00,15.4,11.7,29.58,NW,317,7.2,10.4,85,0.00,-SN,,0.00,0.0,WeatherDisplay:10.37,2013-01-31 01:35:00,
2013-01-30 19:40:00,15.4,11.7,29.58,WNW,287,6.9,9.2,85,0.00,BKN,,0.00,0.0,WeatherDisplay:10.37,2013-01-31 01:40:00,
2013-01-30 19:45:00,15.2,11.2,29.58,North,349,9.0,12.7,84,0.00,BKN,,0.00,0.0,WeatherDisplay:10.37,2013-01-31 01:45:00,
2013-01-30 19:50:00,15.4,11.4,29.58,NNW,331,5.8,7.2,84,0.00,BKN,,0.00,0.0,WeatherDisplay:10.37,2013-01-31 01:50:00,
2013-01-30 19:55:00,15.2,11.2,29.58,West,280,10.2,17.3,84,0.00,BKN,,0.00,0.0,WeatherDisplay:10.37,2013-01-31 01:55:00,
2013-01-30 20:00:00,15.2,11.2,29.59,WNW,302,7.6,9.6,84,0.00,BKN,,0.00,0.0,WeatherDisplay:10.37,2013-01-31 02:00:00,
2013-01-30 20:05:00,15.2,11.2,29.59,WNW,296,7.7,11.5,84,0.00,BKN,,0.00,0.0,WeatherDisplay:10.37,2013-01-31 02:05:00,
2013-01-30 20:10:00,15.1,11.1,29.59,NW,304,8.3,15.0,84,0.00,-SN,,0.00,0.0,WeatherDisplay:10.37,2013-01-31 02:10:00,
2013-01-30 20:15:00,15.1,11.1,29.59,West,279,7.0,10.4,84,0.00,-SN,,0.00,0.0,WeatherDisplay:10.37,2013-01-31 02:15:00,
2013-01-30 20:20:00,15.1,10.9,29.59,NW,305,7.9,11.5,83,0.00,-SN,,0.00,0.0,WeatherDisplay:10.37,2013-01-31 02:20:00,
2013-01-30 20:25:00,14.9,10.7,29.59,WNW,283,9.1,14.4,83,0.00,-SN,,0.00,0.0,WeatherDisplay:10.37,2013-01-31 02:25:00,
2013-01-30 20:30:00,14.8,10.6,29.59,WNW,286,6.3,9.2,83,0.00,-SN,,0.00,0.0,WeatherDisplay:10.37,2013-01-31 02:30:00,
2013-01-30 20:35:00,14.8,10.6,29.59,NW,312,7.9,12.7,83,0.00,-SN,,0.00,0.0,WeatherDisplay:10.37,2013-01-31 02:35:00,
2013-01-30 20:40:00,14.6,10.4,29.59,WNW,285,10.8,16.1,83,0.00,BKN,,0.00,0.0,WeatherDisplay:10.37,2013-01-31 02:40:00,
2013-01-30 20:45:00,14.4,10.2,29.60,WNW,295,5.8,7.2,83,0.00,BKN,,0.00,0.0,WeatherDisplay:10.37,2013-01-31 02:45:00,
2013-01-30 20:50:00,14.4,10.2,29.60,WNW,301,4.3,6.9,83,0.00,BKN,,0.00,0.0,WeatherDisplay:10.37,2013-01-31 02:50:00,
2013-01-30 20:55:00,14.4,10.2,29.60,NW,304,8.5,10.4,83,0.00,BKN,,0.00,0.0,WeatherDisplay:10.37,2013-01-31 02:55:00,
2013-01-30 21:00:00,14.3,10.1,29.61,NW,310,1.9,6.9,83,0.00,BKN,,0.00,0.0,WeatherDisplay:10.37,2013-01-31 03:00:00,
2013-01-30 21:05:00,14.3,10.1,29.61,NW,308,6.4,9.2,83,0.00,BKN,,0.00,0.0,WeatherDisplay:10.37,2013-01-31 03:05:00,
2013-01-30 21:10:00,14.3,10.1,29.61,NW,317,4.5,8.1,83,0.00,SCT,,0.00,0.0,WeatherDisplay:10.37,2013-01-31 03:10:00,
2013-01-30 21:15:00,14.3,10.1,29.61,West,277,7.7,10.8,83,0.00,SCT,,0.00,0.0,WeatherDisplay:10.37,2013-01-31 03:15:00,
2013-01-30 21:20:00,14.1,9.9,29.61,WNW,287,8.5,12.7,83,0.00,SCT,,0.00,0.0,WeatherDisplay:10.37,2013-01-31 03:20:00,
2013-01-30 21:25:00,14.1,9.6,29.61,NW,316,6.6,12.7,82,0.00,SCT,,0.00,0.0,WeatherDisplay:10.37,2013-01-31 03:25:00,
2013-01-30 21:30:00,14.0,9.5,29.61,NNW,327,5.5,12.0,82,0.00,SCT,,0.00,0.0,WeatherDisplay:10.37,2013-01-31 03:30:00,
2013-01-30 21:35:00,14.0,9.5,29.61,WNW,291,6.7,6.9,82,0.00,SCT,,0.00,0.0,WeatherDisplay:10.37,2013-01-31 03:35:00,
2013-01-30 21:40:00,13.8,9.3,29.61,NW,321,8.4,12.0,82,0.00,SCT,,0.00,0.0,WeatherDisplay:10.37,2013-01-31 03:40:00,
2013-01-30 21:45:00,13.8,9.0,29.62,WNW,283,7.6,9.6,81,0.00,SCT,,0.00,0.0,WeatherDisplay:10.37,2013-01-31 03:45:00,
2013-01-30 21:50:00,13.8,9.0,29.62,NNW,338,5.0,6.0,81,0.00,SCT,,0.00,0.0,WeatherDisplay:10.37,2013-01-31 03:50:00,
2013-01-30 21:55:00,13.8,9.0,29.62,NNW,335,7.7,14.4,81,0.00,SCT,,0.00,0.0,WeatherDisplay:10.37,2013-01-31 03:55:00,
2013-01-30 22:00:00,13.8,8.8,29.63,WNW,296,7.0,16.1,80,0.00,SCT,,0.00,0.0,WeatherDisplay:10.37,2013-01-31 04:00:00,
2013-01-30 22:05:00,13.8,8.8,29.63,NW,304,6.1,9.6,80,0.00,SCT,,0.00,0.0,WeatherDisplay:10.37,2013-01-31 04:05:00,
2013-01-30 22:10:00,13.8,8.8,29.63,West,277,2.3,8.1,80,0.00,BKN,,0.00,0.0,WeatherDisplay:10.37,2013-01-31 04:10:00,
2013-01-30 22:15:00,13.8,8.8,29.63,NW,316,5.0,8.1,80,0.00,BKN,,0.00,0.0,WeatherDisplay:10.37,2013-01-31 04:15:00,
2013-01-30 22:20:00,13.6,8.3,29.63,WNW,284,7.2,10.4,79,0.00,BKN,,0.00,0.0,WeatherDisplay:10.37,2013-01-31 04:20:00,
2013-01-30 22:25:00,13.6,8.3,29.63,WNW,284,4.3,5.8,79,0.00,BKN,,0.00,0.0,WeatherDisplay:10.37,2013-01-31 04:25:00,
2013-01-30 22:30:00,13.6,8.0,29.63,NW,313,8.5,9.6,78,0.00,BKN,,0.00,0.0,WeatherDisplay:10.37,2013-01-31 04:30:00,
2013-01-30 22:35:00,13.6,8.0,29.63,West,273,7.5,12.7,78,0.00,BKN,,0.00,0.0,WeatherDisplay:10.37,2013-01-31 04:35:00,
2013-01-30 22:40:00,13.6,7.7,29.63,WNW,284,6.2,8.1,77,0.00,BKN,,0.00,0.0,WeatherDisplay:10.37,2013-01-31 04:40:00,
2013-01-30 22:45:00,13.5,7.6,29.64,NW,312,10.0,10.0,77,0.00,BKN,,0.00,0.0,WeatherDisplay:10.37,2013-01-31 04:45:00,
2013-01-30 22:50:00,13.5,7.6,29.64,NW,309,10.7,15.0,77,0.00,BKN,,0.00,0.0,WeatherDisplay:10.37,2013-01-31 04:50:00,
2013-01-30 22:55:00,13.5,7.6,29.64,NW,306,6.4,15.0,77,0.00,BKN,,0.00,0.0,WeatherDisplay:10.37,2013-01-31 04:55:00,
2013-01-30 23:00:00,13.5,7.3,29.65,West,281,7.3,15.6,76,0.00,BKN,,0.00,0.0,WeatherDisplay:10.37,2013-01-31 05:00:00,
2013-01-30 23:01:00,13.5,7.3,29.65,WNW,292,6.9,16.1,76,0.00,BKN,,0.00,0.0,WeatherDisplay:10.37,2013-01-31 05:01:00,
2013-01-30 23:03:00,13.5,7.6,29.65,WNW,301,4.6,7.2,77,0.00,BKN,,0.00,0.0,WeatherDisplay:10.37,2013-01-31 05:03:00,
2013-01-30 23:08:00,13.5,7.6,29.65,West,277,8.1,11.5,77,0.00,BKN,,0.00,0.0,WeatherDisplay:10.37,2013-01-31 05:08:00,
2013-01-30 23:13:00,13.3,7.4,29.65,NW,312,8.1,15.0,77,0.00,BKN,,0.00,0.0,WeatherDisplay:10.37,2013-01-31 05:13:00,
2013-01-30 23:18:00,13.3,7.4,29.65,NW,306,5.8,10.8,77,0.00,BKN,,0.00,0.0,WeatherDisplay:10.37,2013-01-31 05:18:00,
2013-01-30 23:23:00,13.3,7.4,29.65,West,279,4.5,7.2,77,0.00,SCT,,0.00,0.0,WeatherDisplay:10.37,2013-01-31 05:23:00,
2013-01-30 23:28:00,13.1,7.2,29.65,WNW,300,5.4,8.1,77,0.00,SCT,,0.00,0.0,WeatherDisplay:10.37,2013-01-31 05:28:00,
2013-01-30 23:33:00,13.1,7.2,29.66,WNW,286,0.4,5.8,77,0.00,SCT,,0.00,0.0,WeatherDisplay:10.37,2013-01-31 05:33:00,
2013-01-30 23:38:00,12.9,7.0,29.66,WNW,296,2.4,4.6,77,0.00,SCT,,0.00,0.0,WeatherDisplay:10.37,2013-01-31 05:38:00,
2013-01-30 23:43:00,12.8,6.9,29.66,WNW,302,6.4,8.1,77,0.00,SCT,,0.00,0.0,WeatherDisplay:10.37,2013-01-31 05:43:00,
2013-01-30 23:48:00,12.8,6.9,29.66,WNW,285,4.2,9.2,77,0.00,SCT,,0.00,0.0,WeatherDisplay:10.37,2013-01-31 05:48:00,
2013-01-30 23:53:00,12.8,6.9,29.66,West,268,4.7,6.0,77,0.00,SCT,,0.00,0.0,WeatherDisplay:10.37,2013-01-31 05:53:00,
2013-01-30 23:58:00,12.8,7.2,29.66,West,273,1.6,4.6,78,0.00,SCT,,0.00,0.0,WeatherDisplay:10.37,2013-01-31 05:58:00,